Content
SEND FEEDBACK

Daily
Averages
Monthly
Summary
Indonesia

HASANUDIN, INDONESIA


Home > Asia > Indonesia
Elevation: 46 feet     Latitude: 05 04S     Longitude: 119 33E

WEATHER
 
SELECT A DAY
Number of Records: 207,235;   Date Range: 9/17/97 - 12/18/14
 
SHARE

PRINT THIS DATA

[ ← Previous Day ]
WEATHER ALMANAC - JANUARY 18, 2013
[ Next Day → ]
[ °C ]   °F
Weather ElementAverageHighLow
Temperature80.9 °F87.8 °F (12:30 pm)76 °F (8:00 pm)
Dewpoint79.1 °F84.2 °F (11:30 am)76 °F (8:00 pm)
Humidity94.3 %100 % (12:30 am)75 % (12:30 pm)
Barometer28.05 in29.92 in (9:00 pm) (7:00 pm)
Wind Speed5.2 mph18.4 mph (6:00 pm)
Wind Gust33.4 mph (5:48 pm)
Weather ElementAverage
Visibility4.5 mi
Wind DirectionSSE (153.1 °)

Weather ElementTotal
Precipitation---
Cooling Degree Days16.9 (Base 65)
Growing Degree Days31.9 (Base 50)
Averaged from 64 records on January 18, 2013
WEATHER CONDITIONS BREAKOUT
WIND DIRECTION BREAKOUT
WEATHER BY HOUR - JANUARY 18, 2013
[ °C ]   °F
Local TimeTemperatureDewpointHumidityBarometerVisibilityWind DirectionWind SpeedGust SpeedPrecipitationEventsConditions
12:30 AM78.8 °F78.8 °F100 %29.83 in3.1 miVariable2.3 mphRainLight Rain
1:00 AM78.8 °F78.8 °F100 %29.83 in3.1 miVariable2.3 mphRainLight Rain
1:30 AM78.8 °F78.8 °F100 %29.80 in4.3 miENE (60°)2.3 mphRainLight Rain
2:00 AM79.0 °F79.0 °F99 %29.80 in4.0 miEast (80°)2.3 mphRainLight Rain
2:00 AM78.8 °F78.8 °F100 %29.80 in4.3 miEast (80°)3.5 mphPartly Cloudy
2:30 AM78.8 °F78.8 °F100 %29.80 in4.3 miEast (90°)3.5 mphPartly Cloudy
3:00 AM78.8 °F78.8 °F100 %29.80 in4.3 miVariable2.3 mphPartly Cloudy
3:30 AM78.8 °F78.8 °F100 %29.80 in4.3 miNE (50°)1.2 mphPartly Cloudy
4:00 AM78.8 °F78.8 °F100 %29.77 in4.3 miEast (80°)3.5 mphPartly Cloudy
4:30 AM78.8 °F78.8 °F100 %29.80 in4.3 miNE (50°)3.5 mphPartly Cloudy
5:00 AM78.0 °F78.0 °F100 %29.81 in5.0 miNE (50°)3.5 mphScattered Clouds
5:00 AM78.8 °F78.8 °F100 %29.80 in5.0 miNE (40°)3.5 mphPartly Cloudy
5:30 AM78.8 °F78.8 °F100 %29.80 in5.0 miVariable2.3 mphPartly Cloudy
6:00 AM78.8 °F78.8 °F100 %29.80 in5.0 miENE (70°)3.5 mphPartly Cloudy
6:30 AM78.8 °F78.8 °F100 %29.83 in5.6 miVariable1.2 mphPartly Cloudy
7:00 AM78.8 °F78.8 °F100 %29.83 in6.2 miVariable2.3 mphPartly Cloudy
7:30 AM80.6 °F80.6 °F100 %29.86 in6.2 miVariable1.2 mphPartly Cloudy
8:00 AM82.0 °F78.0 °F85 %29.86 in6.0 miNE (40°)2.3 mphScattered Clouds
8:00 AM82.4 °F78.8 °F89 %29.86 in5.6 miVariable2.3 mphPartly Cloudy
8:30 AM84.2 °F80.6 °F89 %29.86 in5.6 miEast (100°)3.5 mphScattered Clouds
9:00 AM82.4 °F80.6 °F94 %29.86 in5.6 miENE (70°)3.5 mphMostly Cloudy
9:30 AM82.4 °F80.6 °F94 %29.86 in5.6 miESE (110°)4.6 mphMostly Cloudy
9:33 AM82.4 °F80.6 °F94 %29.86 in5.0 miESE (120°)3.5 mphRainLight Rain
9:47 AM82.4 °F80.6 °F94 %29.83 in5.6 miEast (100°)3.5 mphScattered Clouds
10:00 AM84.2 °F80.6 °F89 %29.83 in5.6 miENE (70°)3.5 mphScattered Clouds
10:30 AM84.2 °F80.6 °F89 %29.83 in5.6 miSE (130°)4.6 mphMostly Cloudy
10:31 AM84.2 °F80.6 °F89 %29.83 in5.0 miSE (130°)3.5 mphRainLight Rain
10:52 AM80.6 °F80.6 °F100 %29.83 in5.0 miNNW (330°)6.9 mphMostly Cloudy
11:00 AM82.0 °F82.0 °F98 %29.84 in3.0 miNW (320°)2.3 mphPartly Cloudy
11:00 AM82.4 °F82.4 °F100 %29.83 in3.1 miNNW (340°)4.6 mphScattered Clouds
11:30 AM86.0 °F84.2 °F94 %29.83 in5.6 miNorth (350°)5.8 mphScattered Clouds
12:00 PM86.0 °F80.6 °F84 %29.83 in5.6 miWNW (290°)8.1 mphScattered Clouds
12:30 PM87.8 °F78.8 °F75 %29.80 in5.6 miWNW (290°)8.1 mphScattered Clouds
1:00 PM86.0 °F78.8 °F79 %29.80 in5.6 miWNW (300°)8.1 mphScattered Clouds
1:30 PM86.0 °F78.8 °F79 %29.77 in5.6 miWNW (290°)8.1 mphMostly Cloudy
2:00 PM87.0 °F80.0 °F75 %29.77 in6.0 miWNW (290°)6.9 mphPartly Cloudy
2:00 PM86.0 °F80.6 °F84 %29.77 in5.6 miWNW (300°)9.2 mphMostly Cloudy
2:30 PM87.8 °F78.8 °F75 %29.77 in5.6 miNW (310°)9.2 mphMostly Cloudy
3:00 PM86.0 °F78.8 °F79 %29.74 in5.6 miWNW (300°)10.4 mphMostly Cloudy
3:30 PM86.0 °F80.6 °F84 %29.74 in5.6 miNW (320°)8.1 mphMostly Cloudy
3:37 PM86.0 °F80.6 °F84 %4.3 miWNW (300°)6.9 mphRainLight Rain
4:00 PM82.4 °F80.6 °F94 %3.1 miWNW (290°)10.4 mphRainRain
4:13 PM82.4 °F82.4 °F100 %29.74 in5.0 miVariable2.3 mphMostly Cloudy
4:30 PM82.4 °F80.6 °F94 %29.74 in5.0 miWest (280°)5.8 mphScattered Clouds
5:00 PM84.0 °F80.0 °F84 %29.77 in5.0 miWest (270°)3.5 mphPartly Cloudy
5:00 PM84.2 °F80.6 °F89 %29.77 in5.0 miWNW (290°)3.5 mphScattered Clouds
5:30 PM82.4 °F80.6 °F94 %29.80 in5.6 miNW (310°)5.8 mphScattered Clouds
5:48 PM80.6 °F77.0 °F89 %3.1 miWest (270°)10.4 mph33.4 mphRainRain
5:50 PM78.8 °F77.0 °F94 %29.80 in0.5 miWest (270°)12.7 mph33.4 mphRainHeavy Rain
6:00 PM77.0 °F77.0 °F100 %29.80 in0.5 miWNW (290°)18.4 mph33.4 mphRainHeavy Rain
6:11 PM77.0 °F77.0 °F100 %3.1 miWest (280°)5.8 mphRainRain
6:30 PM77.0 °F77.0 °F100 %29.83 in3.7 miVariable2.3 mphRainLight Rain
7:00 PM77.0 °F77.0 °F100 %29.86 in3.7 miSE (140°)4.6 mphRainLight Rain
7:30 PM77.0 °F77.0 °F100 %29.86 in3.7 miSE (140°)5.8 mphRainLight Rain
8:00 PM76.0 °F76.0 °F100 %29.88 in4.0 miSSE (160°)6.9 mphRainLight Rain
8:00 PM77.0 °F77.0 °F100 %29.89 in3.7 miSouth (170°)10.4 mphRainLight Rain
8:30 PM77.0 °F77.0 °F100 %29.89 in3.7 miEast (90°)3.5 mphRainLight Rain
9:00 PM77.0 °F77.0 °F100 %29.92 in3.7 miESE (120°)5.8 mphRainLight Rain
9:30 PM77.0 °F77.0 °F100 %29.92 in3.7 miESE (110°)5.8 mphRainLight Rain
10:00 PM77.0 °F77.0 °F100 %29.92 in3.7 miEast (90°)4.6 mphRainLight Rain
10:30 PM77.0 °F77.0 °F100 %29.89 in3.7 miEast (90°)4.6 mphRainLight Rain
11:00 PM77.0 °F77.0 °F100 %29.88 in4.0 miESE (110°)5.8 mphRainLight Rain
11:00 PM77.0 °F77.0 °F100 %29.89 in3.7 miEast (100°)5.8 mph
11:30 PM77.0 °F77.0 °F100 %29.86 in4.3 miEast (80°)5.8 mphScattered Clouds
Hourly data recorded from WAAA, located miles away from Hasanudin, Indonesia







STORIES FROM OUR PARTNERS